sat.trackr.live / text

‹ back to catalog

FFLY03

NORAD 65319 · 2025-188E

PAYLOAD ACTIVE UNKNOWN

§ Identity

Operator
Country
IND
Launch date
2025-08-26
Launch site
AFWTR
Launch vehicle
Mass (kg)
RCS (m²)

External: N2YO · Heavens-Above · Gunter

§ Orbital elements

Epoch: 2026-05-25T04:55:11.356320Z

Period
96.46 min
Inclination
97.7325°
Eccentricity
0.0007877
Mean motion
14.92868726 rev/d
Perigee alt
583.5 km
Apogee alt
594.5 km
Semi-major
6,967.1 km
B*
1.0184e-4
RAAN
220.7275°
Arg perigee
173.8718°
Mean anomaly
186.2599°
Rev number
4,048

§ Raw data

FFLY031 65319U 25188E   26145.20499255  .00000999  00000+0  10184-3 0  99952 65319  97.7325 220.7275 0007877 173.8718 186.2599 14.92868726 40487

JSON: /api/v1/satellites/65319 · /tle

For live sub-satellite position, see the globe view (requires WebGL).

§ Visibility from observer

Set your observer location to see the next 7 days of passes ≥ 10°. The values pass through the URL so the page stays shareable.

No JS? Fill the form by hand. The geolocation button needs JavaScript.